Flag for Burkina Faso Weather past 2 weeks in Koudougou, Burkina Faso

Now
97 °F

Sunny.


Feels Like: 92 °F
Forecast: 73 / 100 °F
Wind: 7 mph from North

Location: Ouagadougou Airport

Current Time: Mar 28, 2015 at 2:25:56 PM

Latest Report: Mar 28, 2015 at 2:00 PM


Visibility: 10 mi

Pressure: 29.92 "Hg

Humidity: 8%

Dew point: 27 °F

Location of KoudougouLocation

Historic Weather in Koudougou — Graph

°F

Koudougou temperature yesterday

Maximum temperature yesterday: 99 °F (at 2:00 PM)
Minimum temperature yesterday: 77 °F (at 6:00 AM)
Average temperature yesterday: 88 °F

Past Weeks' High & Low Weather Summary

 TemperatureHumidityPressure
High104 °F (Mar 16, 1:00 PM)66% (Mar 24, 12:00 AM)30.04 "Hg (Mar 24, 12:00 AM)
Low77 °F (Mar 14, 6:00 AM)6% (Mar 16, 1:00 PM)29.71 "Hg (Mar 21, 5:00 PM)
Average91 °F26%29.83 "Hg
* Reported Mar 13 1:00 PM — Mar 28 1:00 PM, Koudougou, Weather by CustomWeather, © 2015

Note: Actual official high and low records may vary slightly from our data, if they occured in-between our weather recording intervals... More about our weather records

Advertising

Koudougou weather history for previous 24 hours

 ConditionsComfort  
Time TempWeatherWind HumidityBarometerVisibility
1:00 PM
Sat, Mar 28
97 °FPassing clouds.8 mph9%29.95 "HgN/A
9:00 AM86 °FSunny.16 mph10%30.01 "Hg10 mi
8:00 AM82 °FClear.8 mph12%30.01 "Hg5 mi
7:00 AM79 °FClear.3 mph13%29.98 "Hg4 mi
6:00 AM77 °FClear.6 mph13%29.95 "Hg10 mi
5:00 AM77 °FClear.7 mph14%29.95 "Hg10 mi
4:00 AM79 °FClear.8 mph13%29.95 "Hg10 mi
3:00 AM81 °FClear.7 mph13%29.95 "Hg10 mi
2:00 AM82 °FClear.6 mph14%29.95 "Hg10 mi
1:00 AM82 °FClear.6 mph14%29.98 "Hg10 mi
12:00 AM84 °FClear.8 mph14%29.98 "Hg10 mi
11:00 PM
Fri, Mar 27
82 °FClear.5 mph20%30.01 "Hg10 mi
10:00 PM86 °FPleasantly warm.5 mph18%30.01 "HgN/A
9:00 PM88 °FClear.7 mph15%29.98 "Hg10 mi
8:00 PM91 °FClear.5 mph15%29.98 "Hg10 mi
7:00 PM90 °FClear.2 mph16%29.92 "Hg10 mi
6:00 PM93 °FSunny.6 mph12%29.92 "Hg10 mi
5:00 PM97 °FPassing clouds.6 mph10%29.89 "HgN/A
4:00 PM99 °FPassing clouds.8 mph10%29.89 "HgN/A
3:00 PM99 °FPassing clouds.6 mph9%29.92 "HgN/A
2:00 PM99 °FPassing clouds.8 mph9%29.92 "HgN/A
Weather by CustomWeather, © 2015

See weather overviewHow to use our weather pages